Tracking 19817 objects as of 19-Aug-2019
HD Live streaming from Space Station
objects crossing your sky now

VCC B

Track VCC B now!
10-day predictions


NORAD ID: 44431
Int'l Code: 1998-067QR
Perigee: 415.8 km
Apogee: 419.8 km
Inclination: 51.6 °
Period: 92.8 minutes
Semi major axis: 6788 km
RCS: Unknown
Launch date: November 20, 1998
Source: United States (US)
Launch site: TYURATAM MISSILE AND SPACE COMPLEX (TTMTR)
aabbcc
Your satellite tracking list
Your tracking list is empty




NASA's NSSDC Master Catalog

Two Line Element Set (TLE):
1 44431U 98067QR  19228.83655792  .00004143  00000-0  74938-4 0  9990
2 44431  51.6422  60.0787 0002941 278.4873  81.5783 15.52089759  6909
Source of the keplerian elements: AFSPC